KLAX Airport (Los Angeles Intl) Information

FAA: LAX - ICAO: KLAX

KLAX Airport Location

State California
County Los Angeles
City Los Angeles
KLAX Airport is 9 miles southwest of Los Angeles, CA.
Latitude 33-56-32.9870N
Longitude 118-24-28.9750W
Elevation 127ft

KLAX Airport METARs

METAR KLAX 060653Z 25012KT 10SM FEW009 18/16 A2994 RMK AO2 SLP135 T01830156
Altimeter 29.94"
Temperature 18.3°C (64.9°F)
Wind 250° at 12KT
Clouds few at 900ft
Visibility 10.0mi
Time observed: 2022-07-06T06:53:00Z

KLAX Airport Details

Status Operational
Activation April 1940
Ownership Public
Usage Public
Chart LOS ANGELES
ATC on-site Yes
Beacon schedule sunset-sunrise
Beacon color clear green

KLAX Airport Contacts

Owner CITY OF LOS ANGELES
Owner address 1 WORLD WAY BOX 92216, LOS ANGELES, CA 90009-2216
Owner phone 424-646-5292
Manager STEPHEN SCOTT
Manager address 1200 N STATE STREET, UNIT 501, LOS ANGELES, CA 90033
Manager phone 323-226-4358

KLAX Airport (Los Angeles Intl) Radio Frequencies

KLAX (Airport) Radio Frequencies

UNICOM 122.95
Common traffic advisory frequency (CTAF) N/A